TimeEET,TemperatureF,Dew PointF,Humidity,Sea Level PressureIn,VisibilityMPH,Wind Direction,Wind SpeedMPH,Gust SpeedMPH,PrecipitationIn,Events,Conditions,WindDirDegrees,DateUTC
12:20 AM,33.8,23.0,65,29.68,6.2,NNE,4.6,-,N/A,,Partly Cloudy,30,2013-01-08 22:20:00
12:50 AM,37.4,21.2,52,29.68,6.2,NNE,5.8,-,N/A,,Partly Cloudy,20,2013-01-08 22:50:00
1:20 AM,39.2,17.6,42,29.68,6.2,North,8.1,-,N/A,,Partly Cloudy,360,2013-01-08 23:20:00
1:50 AM,33.8,21.2,60,29.68,6.2,NNE,6.9,-,N/A,,Partly Cloudy,30,2013-01-08 23:50:00
2:20 AM,35.6,23.0,60,29.68,6.2,North,4.6,-,N/A,,Partly Cloudy,360,2013-01-09 00:20:00
2:50 AM,37.4,23.0,56,29.68,6.2,North,4.6,-,N/A,,Partly Cloudy,350,2013-01-09 00:50:00
3:20 AM,35.6,21.2,56,29.68,6.2,North,3.5,-,N/A,,Partly Cloudy,350,2013-01-09 01:20:00
3:50 AM,33.8,19.4,56,29.68,6.2,NE,3.5,-,N/A,,Partly Cloudy,40,2013-01-09 01:50:00
4:20 AM,32.0,21.2,64,29.68,6.2,North,3.5,-,N/A,,Partly Cloudy,10,2013-01-09 02:20:00
4:50 AM,37.4,17.6,45,29.68,6.2,North,5.8,-,N/A,,Partly Cloudy,350,2013-01-09 02:50:00
5:20 AM,37.4,15.8,41,29.68,6.2,North,4.6,-,N/A,,Partly Cloudy,350,2013-01-09 03:20:00
5:50 AM,35.6,15.8,44,29.71,6.2,North,3.5,-,N/A,,Partly Cloudy,350,2013-01-09 03:50:00
6:20 AM,37.4,14.0,38,29.71,6.2,North,5.8,-,N/A,,Partly Cloudy,350,2013-01-09 04:20:00
6:50 AM,37.4,14.0,38,29.71,6.2,North,8.1,-,N/A,,Scattered Clouds,350,2013-01-09 04:50:00
7:20 AM,37.4,15.8,41,29.71,3.1,North,8.1,-,N/A,,Haze,350,2013-01-09 05:20:00
7:50 AM,39.2,15.8,39,29.74,6.2,NNW,4.6,-,N/A,,Partly Cloudy,340,2013-01-09 05:50:00
8:20 AM,41.0,15.8,36,29.74,6.2,NNW,5.8,-,N/A,,Partly Cloudy,330,2013-01-09 06:20:00
8:50 AM,42.8,14.0,31,29.74,6.2,NNW,8.1,-,N/A,,Partly Cloudy,330,2013-01-09 06:50:00
9:20 AM,42.8,14.0,31,29.74,6.2,NNW,9.2,-,N/A,,Partly Cloudy,340,2013-01-09 07:20:00
9:50 AM,44.6,12.2,27,29.74,6.2,NW,12.7,-,N/A,,Partly Cloudy,320,2013-01-09 07:50:00
10:20 AM,46.4,14.0,27,29.74,6.2,NW,15.0,-,N/A,,Partly Cloudy,320,2013-01-09 08:20:00
10:50 AM,46.4,12.2,25,29.74,6.2,NW,17.3,-,N/A,,Partly Cloudy,320,2013-01-09 08:50:00
11:20 AM,46.4,14.0,27,29.74,6.2,NW,18.4,-,N/A,,Partly Cloudy,320,2013-01-09 09:20:00
11:50 AM,48.2,14.0,25,29.71,6.2,NW,19.6,-,N/A,,Scattered Clouds,320,2013-01-09 09:50:00
12:20 PM,48.2,15.8,27,29.71,6.2,NW,16.1,-,N/A,,Scattered Clouds,320,2013-01-09 10:20:00
12:50 PM,46.4,14.0,27,29.71,6.2,NW,17.3,-,N/A,,Scattered Clouds,320,2013-01-09 10:50:00
1:20 PM,46.4,12.2,25,29.74,6.2,NW,21.9,-,N/A,,Mostly Cloudy,320,2013-01-09 11:20:00
1:50 PM,44.6,12.2,27,29.74,6.2,NW,21.9,-,N/A,,Mostly Cloudy,310,2013-01-09 11:50:00
2:20 PM,44.6,12.2,27,29.74,6.2,NW,20.7,-,N/A,,Mostly Cloudy,320,2013-01-09 12:20:00
2:50 PM,42.8,12.2,29,29.77,6.2,NW,19.6,-,N/A,,Mostly Cloudy,310,2013-01-09 12:50:00
3:20 PM,42.8,10.4,27,29.77,6.2,NW,19.6,-,N/A,,Mostly Cloudy,320,2013-01-09 13:20:00
3:50 PM,41.0,12.2,31,29.80,6.2,NW,18.4,33.4,N/A,,Mostly Cloudy,310,2013-01-09 13:50:00
4:20 PM,41.0,10.4,29,29.80,6.2,NW,19.6,-,N/A,,Mostly Cloudy,310,2013-01-09 14:20:00
4:50 PM,41.0,12.2,31,29.80,6.2,NW,18.4,-,N/A,,Mostly Cloudy,320,2013-01-09 14:50:00
5:20 PM,41.0,12.2,31,29.80,6.2,NW,13.8,-,N/A,,Mostly Cloudy,320,2013-01-09 15:20:00
5:50 PM,41.0,12.2,31,29.83,6.2,NW,16.1,-,N/A,,Scattered Clouds,320,2013-01-09 15:50:00
6:20 PM,41.0,10.4,29,29.83,6.2,NW,15.0,-,N/A,,Scattered Clouds,320,2013-01-09 16:20:00
6:50 PM,41.0,12.2,31,29.83,6.2,NW,15.0,-,N/A,,Scattered Clouds,320,2013-01-09 16:50:00
7:20 PM,39.2,12.2,33,29.86,6.2,WNW,6.9,-,N/A,,Scattered Clouds,300,2013-01-09 17:20:00
7:50 PM,41.0,10.4,29,29.86,6.2,WNW,10.4,-,N/A,,Scattered Clouds,300,2013-01-09 17:50:00
8:20 PM,41.0,10.4,29,29.86,6.2,WNW,9.2,-,N/A,,Scattered Clouds,300,2013-01-09 18:20:00
8:50 PM,41.0,12.2,31,29.86,6.2,NW,10.4,-,N/A,,Scattered Clouds,310,2013-01-09 18:50:00
9:20 PM,41.0,12.2,31,29.86,6.2,NW,9.2,-,N/A,,Scattered Clouds,310,2013-01-09 19:20:00
9:50 PM,41.0,12.2,31,29.86,6.2,NNW,5.8,-,N/A,,Partly Cloudy,330,2013-01-09 19:50:00
10:20 PM,37.4,15.8,41,29.86,6.2,Variable,1.2,-,N/A,,Scattered Clouds,0,2013-01-09 20:20:00
10:50 PM,35.6,17.6,48,29.89,6.2,SE,4.6,-,N/A,,Scattered Clouds,140,2013-01-09 20:50:00
11:20 PM,37.4,15.8,41,29.89,6.2,Variable,4.6,-,N/A,,Scattered Clouds,0,2013-01-09 21:20:00
11:50 PM,35.6,17.6,48,29.89,6.2,Variable,2.3,-,N/A,,Scattered Clouds,0,2013-01-09 21:50:00